South Lake Tahoe, CA

9:14 AM PST on November 17, 2019 (GMT -0800)
Lake Tahoe

Weather History for KTVL - October, 2019

Change the Weather History Date:

Sunday, October 13, 2019

  Actual Average Record
Temperature  
Mean Temperature 43 °F 46 °F  
Max Temperature 60 °F 64 °F 80 °F (2015)
Min Temperature 26 °F 29 °F 20 °F (2017)
Degree Days  
Heating Degree Days 22 19  
Month to date heating degree days 275 221  
Since 1 July heating degree days 886 847  
Cooling Degree Days 0 0  
Month to date cooling degree days 0 0  
Year to date cooling degree days 20 31  
Moisture  
Dew Point 18 °F    
Average Humidity 45    
Maximum Humidity 75    
Minimum Humidity 14    
Precipitation  
Precipitation 0.00 in - 2.88 in (1962)
Month to date precipitation 0.00  
Year to date precipitation 18.02  
Sea Level Pressure  
Sea Level Pressure 29.95 in    
Wind  
Wind Speed 3 mph ()    
Max Wind Speed 14 mph    
Max Gust Speed 19 mph    
Visibility 7.7 miles    
Events      
T = Trace of Precipitation, MM = Missing Value Source: Averaged Metar Reports

Daily Weather History Graph

Daily Weather History Graph

Search for Another Location

Airport or City:

Astronomy

Oct. 13, 2019 Rise Set
Actual Time 7:07 AM PDT 6:24 PM PDT
Civil Twilight 6:40 AM PDT 6:51 PM PDT
Nautical Twilight 6:09 AM PDT 7:22 PM PDT
Astronomical Twilight 5:38 AM PDT 7:53 PM PDT
Moon 6:48 PM PDT (10/13) 6:47 AM PDT (10/13)
Length of Visible Light 12h 10m
Length of Day
11h 17m
Full, 100% of the Moon is Illuminated
Oct 13
Full
Oct 13
Full
Oct 21
Last Quarter
Oct 27
New
Nov 4
First Quarter

Hourly Weather History & Observations

Time (PDT) Temp. Windchill Dew Point Humidity Pressure Visibility Wind Dir Wind Speed Gust Speed Precip Events Conditions
12:53 AM 30.9 °F 26.2 °F 23.0 °F 72% 29.95 in 7.0 mi SSW 4.6 mph - N/A   Clear
1:53 AM 32.0 °F 28.7 °F 21.9 °F 66% 29.95 in 6.0 mi SSW 3.5 mph - N/A   Haze
2:53 AM 30.9 °F - 21.9 °F 69% 29.94 in 6.0 mi Calm Calm - N/A   Haze
3:53 AM 28.9 °F 23.9 °F 21.9 °F 75% 29.93 in 6.0 mi SSW 4.6 mph - N/A   Haze
4:53 AM 28.9 °F 23.9 °F 21.0 °F 72% 29.94 in 5.0 mi South 4.6 mph - N/A   Haze
5:53 AM 28.0 °F - 21.0 °F 75% 29.97 in 5.0 mi Calm Calm - N/A   Haze
6:53 AM 27.0 °F 23.0 °F 19.9 °F 75% 30.00 in 6.0 mi South 3.5 mph - N/A   Haze
7:53 AM 27.0 °F 23.0 °F 19.9 °F 75% 30.01 in 5.0 mi South 3.5 mph - N/A   Haze
8:53 AM 37.0 °F 34.5 °F 23.0 °F 57% 29.99 in 10.0 mi SSE 3.5 mph - N/A   Clear
9:53 AM 51.1 °F - 18.0 °F 27% 29.95 in 10.0 mi Calm Calm - N/A   Clear
10:53 AM 57.9 °F - 10.0 °F 15% 29.92 in 10.0 mi South 6.9 mph - N/A   Clear
11:53 AM 59.0 °F - 19.0 °F 21% 29.91 in 8.0 mi Variable 3.5 mph - N/A   Clear
12:53 PM 57.9 °F - 9.0 °F 14% 29.91 in 8.0 mi SSW 8.1 mph - N/A   Clear
1:53 PM 60.1 °F - 10.9 °F 14% 29.89 in 6.0 mi SSW 8.1 mph - N/A   Haze
2:40 PM 59.0 °F - 9.0 °F 14% 29.97 in 4.0 mi South 11.5 mph - N/A   Haze
2:50 PM 59.0 °F - 8.6 °F 14% 29.97 in 7.0 mi Variable 4.6 mph - N/A   Scattered Clouds
2:53 PM 59.0 °F - 10.0 °F 14% 29.89 in 7.0 mi Variable 4.6 mph - N/A   Scattered Clouds
3:53 PM 57.9 °F - 12.9 °F 17% 29.90 in 5.0 mi SSW 5.8 mph - N/A   Haze
4:53 PM 55.9 °F - 19.9 °F 25% 29.91 in 9.0 mi SSW 3.5 mph - N/A   Mostly Cloudy
5:53 PM 52.0 °F - 23.0 °F 32% 29.94 in 10.0 mi SSW 3.5 mph - N/A   Clear
6:53 PM 46.9 °F - 23.0 °F 39% 29.97 in 10.0 mi Calm Calm - N/A   Clear
7:53 PM 41.0 °F - 23.0 °F 49% 30.01 in 10.0 mi Calm Calm - N/A   Clear
8:53 PM 37.9 °F - 23.0 °F 55% 29.99 in 10.0 mi Calm Calm - N/A   Clear
9:53 PM 32.0 °F - 21.9 °F 66% 29.97 in 10.0 mi Calm Calm - N/A   Clear
10:53 PM 32.0 °F - 21.0 °F 64% 29.96 in 10.0 mi Calm Calm - N/A   Clear
11:53 PM 30.0 °F - 19.9 °F 66% 29.97 in 10.0 mi Calm Calm - N/A   Clear